Location: *
(55.5817°S, 142.4781°W)
Time: 07:13:42
(UTC+00:00)

Cosmos 1092 Rocket - Pass Details

Date: 29 April 2025
Orbit: 954 x 994 km, 82.9° (Epoch: 23 May)

Event Time Altitude Azimuth Distance (km) Brightness Sun altitude
Rises 15:39:21 0° 192° (SSW) 3,749 6.8 -10.4°
Reaches altitude 10° 15:41:54 10° 192° (SSW) 2,791 6.2 -10.0°
Maximum altitude 15:48:21 88° 280° (W) 1,004 4.1 -9.1°
Drops below altitude 10° 15:54:39 10° 8° (N) 2,735 6.7 -8.3°
Sets 15:57:08 0° 8° (N) 3,669 7.3 -7.9°
